Weather in Prykolotne

Ukraine / Kharkiv Region     50°09′38″N   37°21′02″E
temp.,
°C
wind,
m/s
gust,
m/s
humid.,
%
clouds,
%
prec.,
mm/h
press.,
hPa
HPBL,
m
28 september, tue
tue2800:00+7n36915 0.0 1021125
03:00+6n229243 0.0 102131
06:00+8n3792100 0.2 1021263
09:00+9nne4684100 0.6 1022404
12:00+12nne556585 0.5 10231031
15:00+12ne5568100 0.8 1024857
18:00+10ne597299 0.1 1025479
21:00+8ne5976100 0.1 1028607
29 september, wed
wed2900:00+7ne488380 0.0 1029534
03:00+7ne5883100 0.0 1030537
06:00+7ne5879100 0.0 1030541
09:00+8ene677019 0.0 1031702
12:00+11ene564814 0.0 10311411
15:00+13ne56360 0.0 10301539
18:00+9ne36460 0.0 1031124
21:00+6ne36570 0.0 1032110
30 september, thu
thu3000:00+5ne34625 0.0 103371
03:00+4ne33665 0.0 103342
06:00+3ne33705 0.0 103437
09:00+8ne35530 0.0 1034345
12:00+12ene44390 0.0 10331212
15:00+14ne34365 0.0 10321462
18:00+10ene33481 0.0 103241
21:00+7ene34582 0.0 103354
1 october, fri
fri100:00+6ene33663 0.0 103449
03:00+5ene33715 0.0 103437
06:00+5ene33755 0.0 103539
09:00+9e35575 0.0 1035318
12:00+13e45425 0.0 10351296
15:00+15e453910 0.0 10341639
18:00+11e33525 0.0 103342
21:00+8e34615 0.0 103563
2 october, sat
sat200:00+7e34675 0.0 103563
03:00+6e34725 0.0 103448
06:00+6e337416 0.0 103437
09:00+10e345659 0.0 1034308
12:00+11e4553100 0.0 1033616
15:00+13e465350 0.0 1032886
18:00+10ene36696 0.0 1032118
21:00+8e368338 0.0 103296